Time,TemperatureF,DewpointF,PressureIn,WindDirection,WindDirectionDegrees,WindSpeedMPH,WindSpeedGustMPH,Humidity,HourlyPrecipIn,Conditions,Clouds,dailyrainin,SoftwareType,DateUTC
2013-06-25 00:01:00,81.9,71.7,29.88,East,79,0.0,0.0,71,0.00,,---,0.00,VWS V14.00,2013-06-25 05:01:00,
2013-06-25 00:06:00,81.9,71.7,29.88,SE,138,0.0,0.0,71,0.00,,---,0.00,VWS V14.00,2013-06-25 05:06:00,
2013-06-25 00:11:00,81.9,71.7,29.88,SSW,211,0.0,0.0,71,0.00,,---,0.00,VWS V14.00,2013-06-25 05:11:00,
2013-06-25 00:16:00,82.0,71.8,29.88,South,189,0.0,0.0,71,0.00,,---,0.00,VWS V14.00,2013-06-25 05:16:00,
2013-06-25 00:21:00,82.0,71.8,29.88,SSW,202,0.0,0.0,71,0.00,,---,0.00,VWS V14.00,2013-06-25 05:21:00,
2013-06-25 00:26:00,82.0,71.8,29.88,SSW,213,0.0,0.0,71,0.00,,---,0.00,VWS V14.00,2013-06-25 05:26:00,
2013-06-25 00:31:00,82.0,71.8,29.88,South,187,0.0,0.0,71,0.00,,---,0.00,VWS V14.00,2013-06-25 05:31:00,
2013-06-25 00:36:00,81.9,71.7,29.88,SSE,163,0.0,0.0,71,0.00,,---,0.00,VWS V14.00,2013-06-25 05:36:00,
2013-06-25 00:41:00,81.9,71.7,29.88,South,183,0.0,0.0,71,0.00,,---,0.00,VWS V14.00,2013-06-25 05:41:00,
2013-06-25 00:46:00,81.7,71.5,29.88,West,274,0.0,0.0,71,0.00,,---,0.00,VWS V14.00,2013-06-25 05:46:00,
2013-06-25 00:51:00,81.5,71.3,29.88,West,274,0.0,0.0,71,0.00,,---,0.00,VWS V14.00,2013-06-25 05:51:00,
2013-06-25 00:56:00,81.3,71.2,29.88,WSW,241,0.0,0.0,71,0.00,,---,0.00,VWS V14.00,2013-06-25 05:56:00,
2013-06-25 01:02:00,81.1,71.0,29.88,WSW,247,0.0,0.0,71,0.00,,---,0.00,VWS V14.00,2013-06-25 06:02:00,
2013-06-25 01:07:00,81.1,71.0,29.88,West,281,0.0,0.0,71,0.00,,---,0.00,VWS V14.00,2013-06-25 06:07:00,
2013-06-25 01:12:00,81.0,70.8,29.88,SE,143,0.0,0.0,71,0.00,,---,0.00,VWS V14.00,2013-06-25 06:12:00,
2013-06-25 01:17:00,81.0,71.4,29.88,South,191,0.0,0.0,73,0.00,,---,0.00,VWS V14.00,2013-06-25 06:17:00,
2013-06-25 01:22:00,80.8,71.2,29.88,SE,140,0.0,0.0,73,0.00,,---,0.00,VWS V14.00,2013-06-25 06:22:00,
2013-06-25 01:27:00,80.6,71.0,29.88,NE,41,0.0,0.0,73,0.00,,---,0.00,VWS V14.00,2013-06-25 06:27:00,
2013-06-25 01:32:00,80.6,71.0,29.88,ESE,118,0.0,0.0,73,0.00,,---,0.00,VWS V14.00,2013-06-25 06:32:00,
2013-06-25 01:37:00,80.4,71.4,29.88,SSE,166,0.0,0.0,74,0.00,,---,0.00,VWS V14.00,2013-06-25 06:37:00,
2013-06-25 01:42:00,80.4,71.4,29.88,WSW,246,0.0,0.0,74,0.00,,---,0.00,VWS V14.00,2013-06-25 06:42:00,
2013-06-25 01:47:00,80.2,71.2,29.88,WNW,294,0.0,0.0,74,0.00,,---,0.00,VWS V14.00,2013-06-25 06:47:00,
2013-06-25 01:52:00,80.1,71.0,29.88,West,273,0.0,0.0,74,0.00,,---,0.00,VWS V14.00,2013-06-25 06:52:00,
2013-06-25 01:58:00,80.1,70.5,29.88,NW,309,0.0,0.0,73,0.00,,---,0.00,VWS V14.00,2013-06-25 06:58:00,
2013-06-25 02:03:00,79.9,70.9,29.88,WNW,285,0.0,0.0,74,0.00,,---,0.00,VWS V14.00,2013-06-25 07:03:00,
2013-06-25 02:08:00,79.9,70.9,29.88,WSW,255,0.0,0.0,74,0.00,,---,0.00,VWS V14.00,2013-06-25 07:08:00,
2013-06-25 02:13:00,79.7,70.7,29.88,WSW,244,0.0,0.0,74,0.00,,---,0.00,VWS V14.00,2013-06-25 07:13:00,
2013-06-25 02:18:00,79.7,70.2,29.88,WSW,256,0.0,0.0,73,0.00,,---,0.00,VWS V14.00,2013-06-25 07:18:00,
2013-06-25 02:23:00,79.7,70.2,29.88,WSW,245,0.0,0.0,73,0.00,,---,0.00,VWS V14.00,2013-06-25 07:23:00,
2013-06-25 02:28:00,79.7,70.7,29.88,West,279,0.0,0.0,74,0.00,,---,0.00,VWS V14.00,2013-06-25 07:28:00,
2013-06-25 02:33:00,79.5,70.0,29.88,NW,309,0.0,0.0,73,0.00,,---,0.00,VWS V14.00,2013-06-25 07:33:00,
2013-06-25 02:38:00,79.5,70.5,29.88,West,265,0.0,0.0,74,0.00,,---,0.00,VWS V14.00,2013-06-25 07:38:00,
2013-06-25 02:43:00,79.3,70.3,29.88,West,274,0.0,0.0,74,0.00,,---,0.00,VWS V14.00,2013-06-25 07:43:00,
2013-06-25 02:48:00,79.3,70.3,29.88,West,264,0.0,0.0,74,0.00,,---,0.00,VWS V14.00,2013-06-25 07:48:00,
2013-06-25 02:53:00,79.2,70.2,29.88,WNW,283,0.0,0.0,74,0.00,,---,0.00,VWS V14.00,2013-06-25 07:53:00,
2013-06-25 02:58:00,79.2,70.2,29.88,WSW,257,0.0,0.0,74,0.00,,---,0.00,VWS V14.00,2013-06-25 07:58:00,
2013-06-25 03:03:00,79.2,70.2,29.88,West,263,0.0,0.0,74,0.00,,---,0.00,VWS V14.00,2013-06-25 08:03:00,
2013-06-25 03:08:00,79.0,70.0,29.88,WSW,256,0.0,0.0,74,0.00,,---,0.00,VWS V14.00,2013-06-25 08:08:00,
2013-06-25 03:13:00,79.0,70.0,29.88,WSW,255,0.0,0.0,74,0.00,,---,0.00,VWS V14.00,2013-06-25 08:13:00,
2013-06-25 03:18:00,78.8,69.8,29.88,SW,231,0.0,0.0,74,0.00,,---,0.00,VWS V14.00,2013-06-25 08:18:00,
2013-06-25 03:23:00,78.8,69.8,29.88,West,265,0.0,0.0,74,0.00,,---,0.00,VWS V14.00,2013-06-25 08:23:00,
2013-06-25 03:28:00,78.8,70.3,29.88,West,265,0.0,0.0,75,0.00,,---,0.00,VWS V14.00,2013-06-25 08:28:00,
2013-06-25 03:33:00,78.6,70.2,29.88,West,265,0.0,0.0,75,0.00,,---,0.00,VWS V14.00,2013-06-25 08:33:00,
2013-06-25 03:38:00,78.6,70.2,29.88,East,81,0.0,0.0,75,0.00,,---,0.00,VWS V14.00,2013-06-25 08:38:00,
2013-06-25 03:43:00,78.6,70.2,29.88,East,81,0.0,0.0,75,0.00,,---,0.00,VWS V14.00,2013-06-25 08:43:00,
2013-06-25 03:48:00,78.6,70.2,29.88,East,81,0.0,0.0,75,0.00,,---,0.00,VWS V14.00,2013-06-25 08:48:00,
2013-06-25 03:53:00,78.4,70.0,29.88,East,81,0.0,0.0,75,0.00,,---,0.00,VWS V14.00,2013-06-25 08:53:00,
2013-06-25 03:58:00,78.4,70.5,29.88,East,81,0.0,0.0,77,0.00,,---,0.00,VWS V14.00,2013-06-25 08:58:00,
2013-06-25 04:03:00,78.4,70.5,29.88,East,81,0.0,0.0,77,0.00,,---,0.00,VWS V14.00,2013-06-25 09:03:00,
2013-06-25 04:08:00,78.3,70.3,29.88,East,81,0.0,0.0,77,0.00,,---,0.00,VWS V14.00,2013-06-25 09:08:00,
2013-06-25 04:13:00,78.1,70.2,29.88,East,81,0.0,0.0,77,0.00,,---,0.00,VWS V14.00,2013-06-25 09:13:00,
2013-06-25 04:18:00,78.1,70.7,29.88,East,81,0.0,0.0,78,0.00,,---,0.00,VWS V14.00,2013-06-25 09:18:00,
2013-06-25 04:23:00,77.9,70.5,29.88,East,81,0.0,0.0,78,0.00,,---,0.00,VWS V14.00,2013-06-25 09:23:00,
2013-06-25 04:29:00,77.9,70.5,29.88,East,81,0.0,0.0,78,0.00,,---,0.00,VWS V14.00,2013-06-25 09:29:00,
2013-06-25 04:34:00,77.7,70.3,29.88,East,81,0.0,0.0,78,0.00,,---,0.00,VWS V14.00,2013-06-25 09:34:00,
2013-06-25 04:39:00,77.7,70.3,29.88,East,81,0.0,0.0,78,0.00,,---,0.00,VWS V14.00,2013-06-25 09:39:00,
2013-06-25 04:44:00,77.7,70.8,29.88,East,81,0.0,0.0,79,0.00,,---,0.00,VWS V14.00,2013-06-25 09:44:00,
2013-06-25 04:49:00,77.7,71.3,29.88,East,81,0.0,0.0,81,0.00,,---,0.00,VWS V14.00,2013-06-25 09:49:00,
2013-06-25 04:54:00,77.5,70.6,29.88,East,83,0.0,0.0,79,0.00,,---,0.00,VWS V14.00,2013-06-25 09:54:00,
2013-06-25 04:59:00,77.4,70.5,29.88,NNW,343,0.0,0.0,79,0.00,,---,0.00,VWS V14.00,2013-06-25 09:59:00,
2013-06-25 05:04:00,77.4,70.5,29.88,NNW,343,0.0,0.0,79,0.00,,---,0.00,VWS V14.00,2013-06-25 10:04:00,
2013-06-25 05:09:00,77.4,70.5,29.88,NNW,343,0.0,0.0,79,0.00,,---,0.00,VWS V14.00,2013-06-25 10:09:00,
2013-06-25 05:14:00,77.4,70.5,29.88,WNW,298,0.0,0.0,79,0.00,,---,0.00,VWS V14.00,2013-06-25 10:14:00,
2013-06-25 05:19:00,77.4,71.0,29.88,WNW,298,0.0,0.0,81,0.00,,---,0.00,VWS V14.00,2013-06-25 10:19:00,
2013-06-25 05:24:00,77.2,70.8,29.88,WNW,298,0.0,0.0,81,0.00,,---,0.00,VWS V14.00,2013-06-25 10:24:00,
2013-06-25 05:29:00,77.2,70.8,29.88,WNW,298,0.0,0.0,81,0.00,,---,0.00,VWS V14.00,2013-06-25 10:29:00,
2013-06-25 05:34:00,77.0,70.6,29.88,WNW,298,0.0,0.0,81,0.00,,---,0.00,VWS V14.00,2013-06-25 10:34:00,
2013-06-25 05:39:00,77.0,71.1,29.88,WNW,298,0.0,0.0,82,0.00,,---,0.00,VWS V14.00,2013-06-25 10:39:00,
2013-06-25 05:44:00,77.0,71.6,29.88,WNW,298,0.0,0.0,83,0.00,,---,0.00,VWS V14.00,2013-06-25 10:44:00,
2013-06-25 05:49:00,76.8,70.9,29.88,WNW,298,0.0,0.0,82,0.00,,---,0.00,VWS V14.00,2013-06-25 10:49:00,
2013-06-25 05:54:00,76.8,71.4,29.91,WNW,298,0.0,0.0,83,0.00,,---,0.00,VWS V14.00,2013-06-25 10:54:00,
2013-06-25 05:59:00,76.8,71.4,29.91,WNW,298,0.0,0.0,83,0.00,,---,0.00,VWS V14.00,2013-06-25 10:59:00,
2013-06-25 06:04:00,76.8,71.4,29.91,WNW,298,0.0,0.0,83,0.00,,---,0.00,VWS V14.00,2013-06-25 11:04:00,
2013-06-25 06:09:00,76.6,71.7,29.91,WNW,298,0.0,0.0,85,0.00,,---,0.00,VWS V14.00,2013-06-25 11:09:00,
2013-06-25 06:14:00,76.6,71.7,29.91,WNW,298,0.0,0.0,85,0.00,,---,0.00,VWS V14.00,2013-06-25 11:14:00,
2013-06-25 06:19:00,76.6,71.7,29.91,WNW,298,0.0,0.0,85,0.00,,---,0.00,VWS V14.00,2013-06-25 11:19:00,
2013-06-25 06:24:00,76.6,71.7,29.91,WNW,298,0.0,0.0,85,0.00,,---,0.00,VWS V14.00,2013-06-25 11:24:00,
2013-06-25 06:29:00,76.6,71.7,29.91,WNW,298,0.0,0.0,85,0.00,,---,0.00,VWS V14.00,2013-06-25 11:29:00,
2013-06-25 06:34:00,76.6,71.7,29.91,WNW,298,0.0,0.0,85,0.00,,---,0.00,VWS V14.00,2013-06-25 11:34:00,
2013-06-25 06:39:00,76.6,71.7,29.91,WNW,298,0.0,0.0,85,0.00,,---,0.00,VWS V14.00,2013-06-25 11:39:00,
2013-06-25 06:44:00,76.6,71.2,29.91,WNW,298,0.0,0.0,83,0.00,,---,0.00,VWS V14.00,2013-06-25 11:44:00,
2013-06-25 06:49:00,76.8,71.9,29.91,WNW,298,0.0,0.0,85,0.00,,---,0.00,VWS V14.00,2013-06-25 11:49:00,
2013-06-25 06:54:00,76.8,71.9,29.91,WNW,298,0.0,0.0,85,0.00,,---,0.00,VWS V14.00,2013-06-25 11:54:00,
2013-06-25 06:59:00,76.8,71.4,29.91,WNW,298,0.0,0.0,83,0.00,,---,0.00,VWS V14.00,2013-06-25 11:59:00,
2013-06-25 07:04:00,77.0,71.6,29.91,East,95,0.0,0.0,83,0.00,,---,0.00,VWS V14.00,2013-06-25 12:04:00,
2013-06-25 07:09:00,77.2,70.8,29.91,East,95,0.0,0.0,81,0.00,,---,0.00,VWS V14.00,2013-06-25 12:09:00,
2013-06-25 07:14:00,77.2,70.3,29.91,WNW,300,0.0,0.0,79,0.00,,---,0.00,VWS V14.00,2013-06-25 12:14:00,
2013-06-25 07:19:00,77.4,71.0,29.91,SE,132,0.0,0.0,81,0.00,,---,0.00,VWS V14.00,2013-06-25 12:19:00,
2013-06-25 07:24:00,77.5,70.6,29.91,SE,133,0.0,0.0,79,0.00,,---,0.00,VWS V14.00,2013-06-25 12:24:00,
2013-06-25 07:29:00,77.7,70.3,29.91,West,273,0.0,0.0,78,0.00,,---,0.00,VWS V14.00,2013-06-25 12:29:00,
2013-06-25 07:34:00,77.9,70.5,29.91,West,273,0.0,0.0,78,0.00,,---,0.00,VWS V14.00,2013-06-25 12:34:00,
2013-06-25 07:40:00,78.1,70.7,29.91,West,273,0.0,0.0,78,0.00,,---,0.00,VWS V14.00,2013-06-25 12:40:00,
2013-06-25 07:45:00,78.3,70.8,29.91,South,173,0.0,0.0,78,0.00,,---,0.00,VWS V14.00,2013-06-25 12:45:00,
2013-06-25 07:50:00,78.4,70.0,29.91,ENE,60,0.0,0.0,75,0.00,,---,0.00,VWS V14.00,2013-06-25 12:50:00,
2013-06-25 07:55:00,78.8,70.3,29.91,WNW,287,0.0,0.0,75,0.00,,---,0.00,VWS V14.00,2013-06-25 12:55:00,
2013-06-25 08:00:00,79.0,70.0,29.91,WNW,288,0.0,0.0,74,0.00,,---,0.00,VWS V14.00,2013-06-25 13:00:00,
2013-06-25 08:05:00,79.2,70.2,29.91,WSW,254,0.0,0.0,74,0.00,,---,0.00,VWS V14.00,2013-06-25 13:05:00,
2013-06-25 08:10:00,79.7,70.2,29.91,West,269,0.0,0.0,73,0.00,,---,0.00,VWS V14.00,2013-06-25 13:10:00,
2013-06-25 08:15:00,79.7,70.2,29.91,WNW,289,0.0,0.0,73,0.00,,---,0.00,VWS V14.00,2013-06-25 13:15:00,
2013-06-25 08:20:00,80.1,71.0,29.91,SW,231,0.0,0.0,74,0.00,,---,0.00,VWS V14.00,2013-06-25 13:20:00,
2013-06-25 08:25:00,80.2,70.7,29.91,West,260,0.0,0.0,73,0.00,,---,0.00,VWS V14.00,2013-06-25 13:25:00,
2013-06-25 08:30:00,80.4,70.8,29.91,West,260,0.0,0.0,73,0.00,,---,0.00,VWS V14.00,2013-06-25 13:30:00,
2013-06-25 08:35:00,80.2,70.7,29.91,WNW,284,0.0,0.0,73,0.00,,---,0.00,VWS V14.00,2013-06-25 13:35:00,
2013-06-25 08:40:00,80.6,70.5,29.91,SSW,207,0.0,0.0,71,0.00,,---,0.00,VWS V14.00,2013-06-25 13:40:00,
2013-06-25 08:45:00,80.8,70.6,29.91,West,280,0.0,0.0,71,0.00,,---,0.00,VWS V14.00,2013-06-25 13:45:00,
2013-06-25 08:50:00,81.1,71.5,29.91,South,189,0.0,0.0,73,0.00,,---,0.00,VWS V14.00,2013-06-25 13:50:00,
2013-06-25 08:55:00,81.5,71.3,29.91,WNW,290,0.0,0.0,71,0.00,,---,0.00,VWS V14.00,2013-06-25 13:55:00,
2013-06-25 09:00:00,81.7,71.5,29.91,SSE,155,0.0,0.0,71,0.00,,---,0.00,VWS V14.00,2013-06-25 14:00:00,
2013-06-25 09:05:00,82.0,71.8,29.91,West,263,0.0,0.0,71,0.00,,---,0.00,VWS V14.00,2013-06-25 14:05:00,
2013-06-25 09:10:00,82.0,71.3,29.91,WNW,283,0.0,0.0,70,0.00,,---,0.00,VWS V14.00,2013-06-25 14:10:00,
2013-06-25 09:15:00,82.4,71.6,29.91,WSW,242,0.0,0.0,70,0.00,,---,0.00,VWS V14.00,2013-06-25 14:15:00,
2013-06-25 09:20:00,82.6,71.8,29.91,WNW,287,0.0,0.0,70,0.00,,---,0.00,VWS V14.00,2013-06-25 14:20:00,
2013-06-25 09:25:00,82.9,72.2,29.91,ESE,120,0.0,0.0,70,0.00,,---,0.00,VWS V14.00,2013-06-25 14:25:00,
2013-06-25 09:30:00,82.9,72.2,29.91,WSW,251,0.0,0.0,70,0.00,,---,0.00,VWS V14.00,2013-06-25 14:30:00,
2013-06-25 09:35:00,83.1,72.3,29.91,SW,215,0.0,0.0,70,0.00,,---,0.00,VWS V14.00,2013-06-25 14:35:00,
2013-06-25 09:40:00,83.1,72.3,29.91,West,275,0.0,0.0,70,0.00,,---,0.00,VWS V14.00,2013-06-25 14:40:00,
2013-06-25 09:45:00,83.3,72.5,29.91,WNW,282,0.0,0.0,70,0.00,,---,0.00,VWS V14.00,2013-06-25 14:45:00,
2013-06-25 09:50:00,83.5,72.7,29.88,South,190,0.0,0.0,70,0.00,,---,0.00,VWS V14.00,2013-06-25 14:50:00,
2013-06-25 09:55:00,83.7,72.8,29.88,SW,222,0.0,0.0,70,0.00,,---,0.00,VWS V14.00,2013-06-25 14:55:00,
2013-06-25 10:00:00,83.8,73.0,29.88,SE,137,0.0,0.0,70,0.00,,---,0.00,VWS V14.00,2013-06-25 15:00:00,
2013-06-25 10:05:00,84.0,73.2,29.91,SSW,207,0.0,0.0,70,0.00,,---,0.00,VWS V14.00,2013-06-25 15:05:00,
2013-06-25 10:10:00,84.0,73.2,29.91,West,273,0.0,2.2,70,0.00,,---,0.00,VWS V14.00,2013-06-25 15:10:00,
2013-06-25 10:15:00,84.2,72.8,29.91,West,269,0.0,0.0,69,0.00,,---,0.00,VWS V14.00,2013-06-25 15:15:00,
2013-06-25 10:20:00,84.6,73.1,29.91,West,262,0.0,0.0,69,0.00,,---,0.00,VWS V14.00,2013-06-25 15:20:00,
2013-06-25 10:25:00,84.4,73.0,29.91,WSW,243,0.0,0.0,69,0.00,,---,0.00,VWS V14.00,2013-06-25 15:25:00,
2013-06-25 10:30:00,84.2,72.8,29.91,West,281,0.0,0.0,69,0.00,,---,0.00,VWS V14.00,2013-06-25 15:30:00,
2013-06-25 10:35:00,84.0,73.2,29.91,WNW,292,0.0,0.0,70,0.00,,---,0.00,VWS V14.00,2013-06-25 15:35:00,
2013-06-25 10:41:00,84.0,73.2,29.91,WSW,256,0.0,0.0,70,0.00,,---,0.00,VWS V14.00,2013-06-25 15:41:00,
2013-06-25 10:46:00,84.0,73.2,29.91,West,280,0.0,0.0,70,0.00,,---,0.00,VWS V14.00,2013-06-25 15:46:00,
2013-06-25 10:51:00,84.2,72.8,29.91,West,276,0.0,0.0,69,0.00,,---,0.00,VWS V14.00,2013-06-25 15:51:00,
2013-06-25 10:56:00,84.7,73.3,29.91,WNW,298,0.0,0.0,69,0.00,,---,0.00,VWS V14.00,2013-06-25 15:56:00,
2013-06-25 11:01:00,85.1,73.7,29.91,West,263,0.0,0.0,69,0.00,,---,0.00,VWS V14.00,2013-06-25 16:01:00,
2013-06-25 11:06:00,85.1,73.7,29.91,South,191,0.0,0.0,69,0.00,,---,0.00,VWS V14.00,2013-06-25 16:06:00,
2013-06-25 11:11:00,85.1,73.7,29.91,SSW,201,0.0,0.0,69,0.00,,---,0.00,VWS V14.00,2013-06-25 16:11:00,
2013-06-25 11:16:00,85.3,73.8,29.91,SE,146,0.0,0.0,69,0.00,,---,0.00,VWS V14.00,2013-06-25 16:16:00,
2013-06-25 11:21:00,85.3,73.8,29.91,West,277,0.0,0.0,69,0.00,,---,0.00,VWS V14.00,2013-06-25 16:21:00,
2013-06-25 11:26:00,85.6,74.2,29.91,WNW,288,0.0,0.0,69,0.00,,---,0.00,VWS V14.00,2013-06-25 16:26:00,
2013-06-25 11:31:00,86.0,74.5,29.91,West,278,0.0,0.0,69,0.00,,---,0.00,VWS V14.00,2013-06-25 16:31:00,
2013-06-25 11:36:00,87.1,75.5,29.91,WSW,246,0.0,0.0,69,0.00,,---,0.00,VWS V14.00,2013-06-25 16:36:00,
2013-06-25 11:41:00,87.6,76.1,29.91,WNW,299,0.0,0.0,69,0.00,,---,0.00,VWS V14.00,2013-06-25 16:41:00,
2013-06-25 11:46:00,87.1,75.5,29.91,WNW,284,0.0,0.0,69,0.00,,---,0.00,VWS V14.00,2013-06-25 16:46:00,
2013-06-25 11:51:00,87.8,75.6,29.91,West,279,0.0,0.0,67,0.00,,---,0.00,VWS V14.00,2013-06-25 16:51:00,
2013-06-25 11:56:00,87.8,75.6,29.91,SSE,163,0.0,0.0,67,0.00,,---,0.00,VWS V14.00,2013-06-25 16:56:00,
2013-06-25 12:01:00,88.9,76.7,29.91,East,98,0.0,0.0,67,0.00,,---,0.00,VWS V14.00,2013-06-25 17:01:00,
2013-06-25 12:06:00,88.9,76.7,29.91,WNW,283,0.0,0.0,67,0.00,,---,0.00,VWS V14.00,2013-06-25 17:06:00,
2013-06-25 12:11:00,88.9,76.7,29.91,WNW,282,0.0,0.0,67,0.00,,---,0.00,VWS V14.00,2013-06-25 17:11:00,
2013-06-25 12:16:00,88.3,76.2,29.91,West,270,0.0,0.0,67,0.00,,---,0.00,VWS V14.00,2013-06-25 17:16:00,
2013-06-25 12:21:00,88.7,76.5,29.91,WSW,242,0.0,0.0,67,0.00,,---,0.00,VWS V14.00,2013-06-25 17:21:00,
2013-06-25 12:26:00,91.0,78.7,29.91,WNW,291,0.0,0.0,67,0.00,,---,0.00,VWS V14.00,2013-06-25 17:26:00,
2013-06-25 12:31:00,94.1,81.0,29.91,West,262,0.0,0.0,66,0.00,,---,0.00,VWS V14.00,2013-06-25 17:31:00,
2013-06-25 12:36:00,93.6,80.5,29.91,West,271,0.0,0.0,66,0.00,,---,0.00,VWS V14.00,2013-06-25 17:36:00,
2013-06-25 12:41:00,93.6,80.5,29.91,West,275,0.0,0.0,66,0.00,,---,0.00,VWS V14.00,2013-06-25 17:41:00,
2013-06-25 12:46:00,93.2,80.2,29.91,WSW,252,0.0,0.0,66,0.00,,---,0.00,VWS V14.00,2013-06-25 17:46:00,
2013-06-25 12:51:00,93.2,80.2,29.88,SE,125,0.0,0.0,66,0.00,,---,0.00,VWS V14.00,2013-06-25 17:51:00,
2013-06-25 12:57:00,90.1,77.9,29.88,ESE,123,0.0,0.0,67,0.00,,---,0.00,VWS V14.00,2013-06-25 17:57:00,
2013-06-25 13:02:00,89.8,77.5,29.88,WNW,283,0.0,0.0,67,0.00,,---,0.00,VWS V14.00,2013-06-25 18:02:00,
2013-06-25 13:07:00,89.8,77.5,29.91,West,271,0.0,0.0,67,0.00,,---,0.00,VWS V14.00,2013-06-25 18:07:00,
2013-06-25 13:12:00,89.8,77.5,29.91,SSE,162,0.0,0.0,67,0.00,,---,0.00,VWS V14.00,2013-06-25 18:12:00,
2013-06-25 13:17:00,89.4,77.2,29.91,East,95,0.0,0.0,67,0.00,,---,0.00,VWS V14.00,2013-06-25 18:17:00,
2013-06-25 13:22:00,89.2,77.0,29.88,ESE,103,0.0,0.0,67,0.00,,---,0.00,VWS V14.00,2013-06-25 18:22:00,
2013-06-25 13:27:00,89.2,77.0,29.88,ESE,120,0.0,0.0,67,0.00,,---,0.00,VWS V14.00,2013-06-25 18:27:00,
2013-06-25 13:32:00,89.2,77.0,29.88,WSW,252,0.0,0.0,67,0.00,,---,0.00,VWS V14.00,2013-06-25 18:32:00,
2013-06-25 13:37:00,89.2,77.0,29.88,West,261,0.0,0.0,67,0.00,,---,0.00,VWS V14.00,2013-06-25 18:37:00,
2013-06-25 13:42:00,90.3,78.0,29.88,ESE,116,0.0,0.0,67,0.00,,---,0.00,VWS V14.00,2013-06-25 18:42:00,
2013-06-25 13:47:00,90.3,78.0,29.88,South,172,0.0,0.0,67,0.00,,---,0.00,VWS V14.00,2013-06-25 18:47:00,
2013-06-25 13:52:00,91.0,78.7,29.88,NW,320,0.0,0.0,67,0.00,,---,0.00,VWS V14.00,2013-06-25 18:52:00,
2013-06-25 13:57:00,91.4,78.4,29.88,West,281,0.0,0.0,66,0.00,,---,0.00,VWS V14.00,2013-06-25 18:57:00,
2013-06-25 14:02:00,91.6,78.6,29.88,SSE,150,0.0,0.0,66,0.00,,---,0.00,VWS V14.00,2013-06-25 19:02:00,
2013-06-25 14:07:00,91.6,78.6,29.88,SE,140,0.0,0.0,66,0.00,,---,0.00,VWS V14.00,2013-06-25 19:07:00,
2013-06-25 14:12:00,91.6,78.6,29.88,North,353,0.0,0.0,66,0.00,,---,0.00,VWS V14.00,2013-06-25 19:12:00,
2013-06-25 14:17:00,90.7,78.4,29.88,SE,144,0.0,0.0,67,0.00,,---,0.00,VWS V14.00,2013-06-25 19:17:00,
2013-06-25 14:22:00,91.2,78.9,29.88,West,267,0.0,0.0,67,0.00,,---,0.00,VWS V14.00,2013-06-25 19:22:00,
2013-06-25 14:27:00,91.6,78.6,29.88,SW,227,0.0,0.0,66,0.00,,---,0.00,VWS V14.00,2013-06-25 19:27:00,
2013-06-25 14:32:00,91.6,78.6,29.88,SSE,165,0.0,0.0,66,0.00,,---,0.00,VWS V14.00,2013-06-25 19:32:00,
2013-06-25 14:37:00,91.6,78.6,29.88,SE,137,0.0,0.0,66,0.00,,---,0.00,VWS V14.00,2013-06-25 19:37:00,
2013-06-25 14:42:00,91.6,78.6,29.88,NNW,328,0.0,0.0,66,0.00,,---,0.00,VWS V14.00,2013-06-25 19:42:00,
2013-06-25 14:47:00,93.6,80.5,29.88,WNW,292,0.0,0.0,66,0.00,,---,0.00,VWS V14.00,2013-06-25 19:47:00,
2013-06-25 14:52:00,93.6,80.5,29.88,West,272,0.0,0.0,66,0.00,,---,0.00,VWS V14.00,2013-06-25 19:52:00,
2013-06-25 14:57:00,93.6,80.5,29.88,WNW,296,0.0,0.0,66,0.00,,---,0.00,VWS V14.00,2013-06-25 19:57:00,
2013-06-25 15:02:00,93.4,80.3,29.88,SE,138,0.0,0.0,66,0.00,,---,0.00,VWS V14.00,2013-06-25 20:02:00,
2013-06-25 15:07:00,93.2,80.2,29.85,SE,133,0.0,0.0,66,0.00,,---,0.00,VWS V14.00,2013-06-25 20:07:00,
2013-06-25 15:12:00,93.2,80.2,29.85,SSE,153,0.0,0.0,66,0.00,,---,0.00,VWS V14.00,2013-06-25 20:12:00,
2013-06-25 15:18:00,93.2,80.2,29.85,SW,217,0.0,0.0,66,0.00,,---,0.00,VWS V14.00,2013-06-25 20:18:00,
2013-06-25 15:23:00,94.1,81.0,29.85,WSW,252,0.0,0.0,66,0.00,,---,0.00,VWS V14.00,2013-06-25 20:23:00,
2013-06-25 15:28:00,94.1,81.0,29.85,East,88,0.0,0.0,66,0.00,,---,0.00,VWS V14.00,2013-06-25 20:28:00,
2013-06-25 15:33:00,94.6,81.5,29.85,East,85,0.0,0.0,66,0.00,,---,0.00,VWS V14.00,2013-06-25 20:33:00,
2013-06-25 15:38:00,94.3,81.2,29.85,South,189,0.0,0.0,66,0.00,,---,0.00,VWS V14.00,2013-06-25 20:38:00,
2013-06-25 15:43:00,94.5,81.3,29.85,SSW,209,0.0,0.0,66,0.00,,---,0.00,VWS V14.00,2013-06-25 20:43:00,
2013-06-25 15:48:00,94.3,81.2,29.85,WNW,286,0.0,0.0,66,0.00,,---,0.00,VWS V14.00,2013-06-25 20:48:00,
2013-06-25 15:53:00,94.3,81.2,29.85,South,179,0.0,0.0,66,0.00,,---,0.00,VWS V14.00,2013-06-25 20:53:00,
2013-06-25 15:58:00,94.6,81.5,29.85,SSE,153,0.0,0.0,66,0.00,,---,0.00,VWS V14.00,2013-06-25 20:58:00,
2013-06-25 16:03:00,94.6,81.5,29.85,SSW,194,0.0,0.0,66,0.00,,---,0.00,VWS V14.00,2013-06-25 21:03:00,
2013-06-25 16:08:00,94.6,81.5,29.85,South,179,0.0,0.0,66,0.00,,---,0.00,VWS V14.00,2013-06-25 21:08:00,
2013-06-25 16:13:00,93.6,80.5,29.85,SSE,149,0.0,0.0,66,0.00,,---,0.00,VWS V14.00,2013-06-25 21:13:00,
2013-06-25 16:18:00,93.6,80.5,29.85,South,179,0.0,0.0,66,0.00,,---,0.00,VWS V14.00,2013-06-25 21:18:00,
2013-06-25 16:23:00,93.6,80.5,29.85,SSE,165,0.0,0.0,66,0.00,,---,0.00,VWS V14.00,2013-06-25 21:23:00,
2013-06-25 16:28:00,93.6,80.5,29.85,WNW,284,0.0,0.0,66,0.00,,---,0.00,VWS V14.00,2013-06-25 21:28:00,
2013-06-25 16:33:00,93.6,80.5,29.85,West,264,0.0,0.0,66,0.00,,---,0.00,VWS V14.00,2013-06-25 21:33:00,
2013-06-25 16:38:00,92.8,79.8,29.83,NW,314,0.0,0.0,66,0.00,,---,0.00,VWS V14.00,2013-06-25 21:38:00,
2013-06-25 16:43:00,92.3,79.3,29.83,West,278,0.0,0.0,66,0.00,,---,0.00,VWS V14.00,2013-06-25 21:43:00,
2013-06-25 16:48:00,92.3,79.3,29.83,ESE,121,0.0,0.0,66,0.00,,---,0.00,VWS V14.00,2013-06-25 21:48:00,
2013-06-25 16:53:00,91.4,78.4,29.83,ESE,121,0.0,0.0,66,0.00,,---,0.00,VWS V14.00,2013-06-25 21:53:00,
2013-06-25 16:58:00,91.4,78.4,29.83,WSW,251,0.0,0.0,66,0.00,,---,0.00,VWS V14.00,2013-06-25 21:58:00,
2013-06-25 17:03:00,91.4,78.4,29.83,WSW,250,0.0,0.0,66,0.00,,---,0.00,VWS V14.00,2013-06-25 22:03:00,
2013-06-25 17:08:00,91.4,78.4,29.83,West,273,0.0,0.0,66,0.00,,---,0.00,VWS V14.00,2013-06-25 22:08:00,
2013-06-25 17:13:00,90.9,78.5,29.83,WNW,292,0.0,0.0,67,0.00,,---,0.00,VWS V14.00,2013-06-25 22:13:00,
2013-06-25 17:18:00,90.9,78.5,29.83,East,85,0.0,0.0,67,0.00,,---,0.00,VWS V14.00,2013-06-25 22:18:00,
2013-06-25 17:23:00,90.9,78.5,29.83,North,353,0.0,0.0,67,0.00,,---,0.00,VWS V14.00,2013-06-25 22:23:00,
2013-06-25 17:28:00,90.9,78.5,29.83,WSW,251,0.0,0.0,67,0.00,,---,0.00,VWS V14.00,2013-06-25 22:28:00,
2013-06-25 17:33:00,90.9,78.5,29.83,NE,36,0.0,0.0,67,0.00,,---,0.00,VWS V14.00,2013-06-25 22:33:00,
2013-06-25 17:38:00,90.9,78.5,29.83,West,275,0.0,0.0,67,0.00,,---,0.00,VWS V14.00,2013-06-25 22:38:00,
2013-06-25 17:44:00,90.9,78.5,29.83,WNW,295,0.0,0.0,67,0.00,,---,0.00,VWS V14.00,2013-06-25 22:44:00,
2013-06-25 17:49:00,90.7,78.4,29.83,WSW,252,0.0,0.0,67,0.00,,---,0.00,VWS V14.00,2013-06-25 22:49:00,
2013-06-25 17:54:00,90.5,78.2,29.80,SW,232,0.0,0.0,67,0.00,,---,0.00,VWS V14.00,2013-06-25 22:54:00,
2013-06-25 17:59:00,90.3,78.0,29.80,SSE,162,0.0,0.0,67,0.00,,---,0.00,VWS V14.00,2013-06-25 22:59:00,
2013-06-25 18:04:00,90.3,78.0,29.80,SSE,168,0.0,0.0,67,0.00,,---,0.00,VWS V14.00,2013-06-25 23:04:00,
2013-06-25 18:09:00,90.3,78.0,29.80,SE,137,0.0,0.0,67,0.00,,---,0.00,VWS V14.00,2013-06-25 23:09:00,
2013-06-25 18:14:00,89.8,77.5,29.80,SSE,150,0.0,0.0,67,0.00,,---,0.00,VWS V14.00,2013-06-25 23:14:00,
2013-06-25 18:19:00,89.6,77.3,29.80,SE,139,0.0,0.0,67,0.00,,---,0.00,VWS V14.00,2013-06-25 23:19:00,
2013-06-25 18:24:00,89.4,77.2,29.80,ENE,61,0.0,0.0,67,0.00,,---,0.00,VWS V14.00,2013-06-25 23:24:00,
2013-06-25 18:29:00,89.2,77.0,29.80,WNW,300,0.0,0.0,67,0.00,,---,0.00,VWS V14.00,2013-06-25 23:29:00,
2013-06-25 18:34:00,88.9,76.7,29.80,West,263,0.0,0.0,67,0.00,,---,0.00,VWS V14.00,2013-06-25 23:34:00,
2013-06-25 18:39:00,88.7,76.5,29.80,SE,142,0.0,0.0,67,0.00,,---,0.00,VWS V14.00,2013-06-25 23:39:00,
2013-06-25 18:44:00,88.5,76.3,29.80,SSE,161,0.0,0.0,67,0.00,,---,0.00,VWS V14.00,2013-06-25 23:44:00,
2013-06-25 18:49:00,88.5,76.3,29.80,ESE,116,0.0,0.0,67,0.00,,---,0.00,VWS V14.00,2013-06-25 23:49:00,
2013-06-25 18:54:00,88.3,76.2,29.80,SSE,154,0.0,0.0,67,0.00,,---,0.00,VWS V14.00,2013-06-25 23:54:00,
2013-06-25 18:59:00,88.2,76.0,29.80,SSE,154,0.0,0.0,67,0.00,,---,0.00,VWS V14.00,2013-06-25 23:59:00,
2013-06-25 19:04:00,88.2,76.0,29.80,SSE,154,0.0,0.0,67,0.00,,---,0.00,VWS V14.00,2013-06-26 00:04:00,
2013-06-25 19:09:00,88.0,75.8,29.80,SSE,154,0.0,0.0,67,0.00,,---,0.00,VWS V14.00,2013-06-26 00:09:00,
2013-06-25 19:14:00,87.8,75.6,29.80,SSE,154,0.0,0.0,67,0.00,,---,0.00,VWS V14.00,2013-06-26 00:14:00,
2013-06-25 19:19:00,87.6,76.1,29.80,SSE,154,0.0,0.0,69,0.00,,---,0.00,VWS V14.00,2013-06-26 00:19:00,
2013-06-25 19:24:00,87.4,75.9,29.80,SSE,154,0.0,0.0,69,0.00,,---,0.00,VWS V14.00,2013-06-26 00:24:00,
2013-06-25 19:29:00,87.4,75.9,29.80,SSE,154,0.0,0.0,69,0.00,,---,0.00,VWS V14.00,2013-06-26 00:29:00,
2013-06-25 19:34:00,87.3,75.7,29.80,SSE,154,0.0,0.0,69,0.00,,---,0.00,VWS V14.00,2013-06-26 00:34:00,
2013-06-25 19:39:00,87.3,75.7,29.80,SSE,154,0.0,0.0,69,0.00,,---,0.00,VWS V14.00,2013-06-26 00:39:00,
2013-06-25 19:44:00,87.1,75.5,29.80,SE,137,0.0,0.0,69,0.00,,---,0.00,VWS V14.00,2013-06-26 00:44:00,
2013-06-25 19:49:00,87.1,75.5,29.80,East,82,0.0,0.0,69,0.00,,---,0.00,VWS V14.00,2013-06-26 00:49:00,
2013-06-25 19:54:00,87.1,75.5,29.80,ESE,110,0.0,0.0,69,0.00,,---,0.00,VWS V14.00,2013-06-26 00:54:00,
2013-06-25 19:59:00,87.1,75.5,29.80,SSW,192,0.0,0.0,69,0.00,,---,0.00,VWS V14.00,2013-06-26 00:59:00,
2013-06-25 20:05:00,86.9,75.4,29.80,NNW,335,0.0,0.0,69,0.00,,---,0.00,VWS V14.00,2013-06-26 01:05:00,
2013-06-25 20:10:00,86.7,75.2,29.80,SE,140,0.0,0.0,69,0.00,,---,0.00,VWS V14.00,2013-06-26 01:10:00,
2013-06-25 20:15:00,86.7,75.2,29.80,SSW,195,0.0,0.0,69,0.00,,---,0.00,VWS V14.00,2013-06-26 01:15:00,
2013-06-25 20:20:00,86.7,75.2,29.80,NW,320,0.0,0.0,69,0.00,,---,0.00,VWS V14.00,2013-06-26 01:20:00,
2013-06-25 20:25:00,86.7,75.2,29.80,SW,221,0.0,0.0,69,0.00,,---,0.00,VWS V14.00,2013-06-26 01:25:00,
2013-06-25 20:30:00,86.2,74.7,29.80,ESE,104,0.0,0.0,69,0.00,,---,0.00,VWS V14.00,2013-06-26 01:30:00,
2013-06-25 20:35:00,86.0,74.5,29.80,SE,138,0.0,0.0,69,0.00,,---,0.00,VWS V14.00,2013-06-26 01:35:00,
2013-06-25 20:40:00,85.8,74.3,29.80,SSE,157,0.0,0.0,69,0.00,,---,0.00,VWS V14.00,2013-06-26 01:40:00,
2013-06-25 20:45:00,85.8,74.3,29.80,SSE,147,0.0,0.0,69,0.00,,---,0.00,VWS V14.00,2013-06-26 01:45:00,
2013-06-25 20:50:00,85.6,74.2,29.80,SSE,153,0.0,0.0,69,0.00,,---,0.00,VWS V14.00,2013-06-26 01:50:00,
2013-06-25 20:55:00,85.5,74.0,29.80,SSE,159,0.0,0.0,69,0.00,,---,0.00,VWS V14.00,2013-06-26 01:55:00,
2013-06-25 21:00:00,85.3,73.8,29.80,SE,141,0.0,0.0,69,0.00,,---,0.00,VWS V14.00,2013-06-26 02:00:00,
2013-06-25 21:05:00,85.3,73.8,29.80,South,173,0.0,0.0,69,0.00,,---,0.00,VWS V14.00,2013-06-26 02:05:00,
2013-06-25 21:10:00,85.1,73.7,29.80,WSW,253,0.0,0.0,69,0.00,,---,0.00,VWS V14.00,2013-06-26 02:10:00,
2013-06-25 21:15:00,84.9,73.5,29.80,WSW,253,0.0,0.0,69,0.00,,---,0.00,VWS V14.00,2013-06-26 02:15:00,
2013-06-25 21:20:00,84.7,73.3,29.80,WSW,253,0.0,0.0,69,0.00,,---,0.00,VWS V14.00,2013-06-26 02:20:00,
2013-06-25 21:25:00,84.7,73.3,29.80,SSW,210,0.0,0.0,69,0.00,,---,0.00,VWS V14.00,2013-06-26 02:25:00,
2013-06-25 21:30:00,84.6,73.1,29.80,South,175,0.0,0.0,69,0.00,,---,0.00,VWS V14.00,2013-06-26 02:30:00,
2013-06-25 21:35:00,84.6,73.1,29.80,SSE,148,0.0,0.0,69,0.00,,---,0.00,VWS V14.00,2013-06-26 02:35:00,
2013-06-25 21:40:00,84.4,73.0,29.80,West,259,0.0,0.0,69,0.00,,---,0.00,VWS V14.00,2013-06-26 02:40:00,
2013-06-25 21:45:00,84.2,72.8,29.80,SSE,163,0.0,0.0,69,0.00,,---,0.00,VWS V14.00,2013-06-26 02:45:00,
2013-06-25 21:50:00,84.2,72.8,29.80,SSW,192,0.0,0.0,69,0.00,,---,0.00,VWS V14.00,2013-06-26 02:50:00,
2013-06-25 21:55:00,84.0,72.6,29.80,SW,214,0.0,0.0,69,0.00,,---,0.00,VWS V14.00,2013-06-26 02:55:00,
2013-06-25 22:00:00,84.0,72.6,29.80,SSW,213,0.0,0.0,69,0.00,,---,0.00,VWS V14.00,2013-06-26 03:00:00,
2013-06-25 22:05:00,83.8,72.4,29.80,SSW,213,0.0,0.0,69,0.00,,---,0.00,VWS V14.00,2013-06-26 03:05:00,
2013-06-25 22:10:00,83.7,72.3,29.80,SSW,213,0.0,0.0,69,0.00,,---,0.00,VWS V14.00,2013-06-26 03:10:00,
2013-06-25 22:15:00,83.7,72.3,29.80,WNW,297,0.0,0.0,69,0.00,,---,0.00,VWS V14.00,2013-06-26 03:15:00,
2013-06-25 22:20:00,83.7,72.3,29.80,South,190,0.0,0.0,69,0.00,,---,0.00,VWS V14.00,2013-06-26 03:20:00,
2013-06-25 22:25:00,83.7,72.3,29.80,SSE,159,0.0,0.0,69,0.00,,---,0.00,VWS V14.00,2013-06-26 03:25:00,
2013-06-25 22:30:00,83.5,72.1,29.80,SSE,160,0.0,0.0,69,0.00,,---,0.00,VWS V14.00,2013-06-26 03:30:00,
2013-06-25 22:35:00,83.5,72.1,29.80,South,185,0.0,0.0,69,0.00,,---,0.00,VWS V14.00,2013-06-26 03:35:00,
2013-06-25 22:41:00,83.5,72.1,29.80,South,185,0.0,0.0,69,0.00,,---,0.00,VWS V14.00,2013-06-26 03:41:00,
2013-06-25 22:46:00,83.3,71.9,29.80,South,185,0.0,0.0,69,0.00,,---,0.00,VWS V14.00,2013-06-26 03:46:00,
2013-06-25 22:51:00,83.3,71.9,29.80,SW,218,0.0,0.0,69,0.00,,---,0.00,VWS V14.00,2013-06-26 03:51:00,
2013-06-25 22:56:00,83.3,71.9,29.80,ESE,107,0.0,0.0,69,0.00,,---,0.00,VWS V14.00,2013-06-26 03:56:00,
2013-06-25 23:01:00,83.1,71.8,29.80,SSW,201,0.0,0.0,69,0.00,,---,0.00,VWS V14.00,2013-06-26 04:01:00,
2013-06-25 23:02:00,83.1,71.8,29.80,West,274,0.0,0.0,69,0.00,,---,0.00,VWS V14.00,2013-06-26 04:02:00,
2013-06-25 23:03:00,83.1,71.8,29.80,West,274,0.0,0.0,69,0.00,,---,0.00,VWS V14.00,2013-06-26 04:03:00,
2013-06-25 23:08:00,83.1,71.8,29.80,SSE,157,0.0,0.0,69,0.00,,---,0.00,VWS V14.00,2013-06-26 04:08:00,
2013-06-25 23:13:00,83.1,71.8,29.80,SSE,162,0.0,0.0,69,0.00,,---,0.00,VWS V14.00,2013-06-26 04:13:00,
2013-06-25 23:18:00,82.9,71.6,29.80,WNW,298,0.0,0.0,69,0.00,,---,0.00,VWS V14.00,2013-06-26 04:18:00,
2013-06-25 23:20:00,82.9,71.6,29.80,WNW,298,0.0,0.0,69,0.00,,---,0.00,VWS V14.00,2013-06-26 04:20:00,
2013-06-25 23:25:00,82.9,71.6,29.80,WNW,298,0.0,0.0,69,0.00,,---,0.00,VWS V14.00,2013-06-26 04:25:00,
2013-06-25 23:30:00,82.8,71.4,29.80,WNW,298,0.0,0.0,69,0.00,,---,0.00,VWS V14.00,2013-06-26 04:30:00,
2013-06-25 23:35:00,82.6,71.2,29.80,WSW,255,0.0,0.0,69,0.00,,---,0.00,VWS V14.00,2013-06-26 04:35:00,
2013-06-25 23:40:00,82.6,71.2,29.80,WSW,255,0.0,0.0,69,0.00,,---,0.00,VWS V14.00,2013-06-26 04:40:00,
2013-06-25 23:45:00,82.4,71.1,29.80,WSW,255,0.0,0.0,69,0.00,,---,0.00,VWS V14.00,2013-06-26 04:45:00,
2013-06-25 23:50:00,82.4,71.1,29.80,WSW,255,0.0,0.0,69,0.00,,---,0.00,VWS V14.00,2013-06-26 04:50:00,
2013-06-25 23:55:00,82.4,71.1,29.80,WSW,255,0.0,0.0,69,0.00,,---,0.00,VWS V14.00,2013-06-26 04:55:00,